N5448T KSRQ-KLAL

Flight info

Callsign N5448T
Flight time N/A
Altitude 1500
Route VFR
Aircraft PA24/L-SDGRY/C

Departure

Time 2026-04-21 22:28
Airport Sarasota Bradenton International Airport (KSRQ)

Arrival

Time N/A
Airport Lakeland Linder International Airport (KLAL)
Time Latitude Longitude Altitude Speed Heading
2026-04-21 22:09 27.39484 -82.55790 25 ft 0 kts 178°
2026-04-21 22:18 27.39474 -82.55787 25 ft 2 kts 132°
2026-04-21 22:18 27.39477 -82.55771 25 ft 2 kts 52°
2026-04-21 22:18 27.39490 -82.55744 25 ft 5 kts 61°
2026-04-21 22:19 27.39521 -82.55704 25 ft 8 kts 43°
2026-04-21 22:19 27.39575 -82.55723 25 ft 13 kts 314°
2026-04-21 22:19 27.39652 -82.55812 25 ft 18 kts 314°
2026-04-21 22:19 27.39745 -82.55919 25 ft 18 kts 310°
2026-04-21 22:20 27.39841 -82.56029 25 ft 22 kts 315°
2026-04-21 22:20 27.39956 -82.56160 25 ft 25 kts 314°
2026-04-21 22:20 27.40088 -82.56311 25 ft 27 kts 311°
2026-04-21 22:20 27.40199 -82.56440 25 ft 23 kts 314°
2026-04-21 22:21 27.40305 -82.56561 26 ft 10 kts 316°
2026-04-21 22:21 27.40333 -82.56592 26 ft 1 kts 309°
2026-04-21 22:21 27.40333 -82.56593 26 ft 0 kts 308°
2026-04-21 22:22 27.40334 -82.56593 26 ft 0 kts 308°
2026-04-21 22:27 27.40376 -82.56627 26 ft 12 kts 359°
2026-04-21 22:27 27.40440 -82.56559 25 ft 12 kts 86°
2026-04-21 22:28 27.40360 -82.56442 25 ft 45 kts 135°
2026-04-21 22:28 27.40008 -82.56079 109 ft 80 kts 134°
2026-04-21 22:28 27.39601 -82.55662 430 ft 77 kts 130°
2026-04-21 22:28 27.39213 -82.55277 756 ft 74 kts 132°
2026-04-21 22:29 27.38921 -82.54803 983 ft 76 kts 100°
2026-04-21 22:29 27.38888 -82.54229 1042 ft 74 kts 83°
2026-04-21 22:29 27.39011 -82.53619 1043 ft 85 kts 77°
2026-04-21 22:29 27.39158 -82.52935 1006 ft 95 kts 79°
2026-04-21 22:30 27.39304 -82.52184 1055 ft 101 kts 78°
2026-04-21 22:30 27.39449 -82.51419 1095 ft 104 kts 79°
2026-04-21 22:30 27.39606 -82.50598 1028 ft 107 kts 79°
2026-04-21 22:30 27.39763 -82.49815 1006 ft 99 kts 78°
2026-04-21 22:31 27.39934 -82.49076 991 ft 97 kts 69°
2026-04-21 22:31 27.40419 -82.48546 995 ft 106 kts 28°
2026-04-21 22:31 27.41173 -82.48536 997 ft 114 kts 348°
2026-04-21 22:31 27.41823 -82.49034 994 ft 116 kts 319°
2026-04-21 22:32 27.42383 -82.49732 1026 ft 121 kts 316°
2026-04-21 22:32 27.42901 -82.50487 1011 ft 121 kts 314°
2026-04-21 22:32 27.43390 -82.51227 995 ft 116 kts 316°
2026-04-21 22:32 27.43881 -82.51972 1017 ft 122 kts 315°
2026-04-21 22:33 27.44407 -82.52731 1037 ft 125 kts 315°
2026-04-21 22:33 27.44970 -82.53514 1029 ft 131 kts 314°
2026-04-21 22:33 27.45573 -82.54290 999 ft 129 kts 316°
2026-04-21 22:33 27.46165 -82.54992 977 ft 119 kts 315°
2026-04-21 22:34 27.46696 -82.55672 985 ft 112 kts 314°
2026-04-21 22:34 27.47188 -82.56327 1000 ft 107 kts 314°
2026-04-21 22:34 27.47669 -82.56973 1006 ft 109 kts 314°
2026-04-21 22:34 27.48159 -82.57636 1007 ft 110 kts 315°
2026-04-21 22:35 27.48667 -82.58303 1006 ft 114 kts 314°
2026-04-21 22:35 27.49197 -82.58975 1010 ft 117 kts 315°
2026-04-21 22:35 27.49743 -82.59682 1020 ft 121 kts 314°
2026-04-21 22:35 27.50362 -82.60458 1022 ft 123 kts 315°
2026-04-21 22:36 27.51485 -82.61869 998 ft 118 kts 315°
2026-04-21 22:36 27.52003 -82.62577 984 ft 115 kts 316°
2026-04-21 22:36 27.52557 -82.63200 989 ft 113 kts 326°
2026-04-21 22:37 27.53126 -82.63801 995 ft 111 kts 327°
2026-04-21 22:37 27.53691 -82.64390 1003 ft 110 kts 327°
2026-04-21 22:37 27.54261 -82.64973 1006 ft 111 kts 327°
2026-04-21 22:37 27.54833 -82.65550 1006 ft 110 kts 327°
2026-04-21 22:38 27.55412 -82.66120 1009 ft 111 kts 327°
2026-04-21 22:38 27.55993 -82.66698 1013 ft 113 kts 329°
2026-04-21 22:38 27.56620 -82.67227 1016 ft 112 kts 336°
2026-04-21 22:38 27.57293 -82.67689 1025 ft 114 kts 341°
2026-04-21 22:39 27.57987 -82.68134 1020 ft 115 kts 341°
2026-04-21 22:39 27.58693 -82.68578 1009 ft 116 kts 341°
2026-04-21 22:39 27.59391 -82.68999 990 ft 113 kts 341°
2026-04-21 22:39 27.60069 -82.69409 991 ft 110 kts 341°
2026-04-21 22:40 27.60747 -82.69819 999 ft 109 kts 341°
2026-04-21 22:40 27.61411 -82.70239 1004 ft 111 kts 341°
2026-04-21 22:40 27.62074 -82.70671 1005 ft 110 kts 341°
2026-04-21 22:40 27.62741 -82.71094 1005 ft 110 kts 341°
2026-04-21 22:41 27.63400 -82.71520 1003 ft 107 kts 341°
2026-04-21 22:41 27.64062 -82.71921 1006 ft 108 kts 341°
2026-04-21 22:41 27.64743 -82.72313 1012 ft 111 kts 346°
2026-04-21 22:41 27.65448 -82.72663 1008 ft 113 kts 348°
2026-04-21 22:42 27.66168 -82.73046 1003 ft 113 kts 347°
2026-04-21 22:42 27.66869 -82.73420 1002 ft 110 kts 348°
2026-04-21 22:42 27.67556 -82.73760 1004 ft 104 kts 348°
2026-04-21 22:42 27.68231 -82.74054 1013 ft 104 kts 348°
2026-04-21 22:43 27.68907 -82.74350 1012 ft 107 kts 347°
2026-04-21 22:43 27.69615 -82.74663 1013 ft 112 kts 348°
2026-04-21 22:43 27.70103 -82.74909 1014 ft 115 kts 348°
2026-04-21 22:43 27.71066 -82.75402 1021 ft 115 kts 348°
2026-04-21 22:44 27.71793 -82.75770 1017 ft 112 kts 348°
2026-04-21 22:44 27.72282 -82.75995 1015 ft 112 kts 348°
2026-04-21 22:44 27.73017 -82.76294 1013 ft 114 kts 353°
2026-04-21 22:44 27.73778 -82.76541 1011 ft 114 kts 358°
2026-04-21 22:45 27.74537 -82.76758 1007 ft 112 kts 358°
2026-04-21 22:45 27.75292 -82.76952 1006 ft 110 kts 358°
2026-04-21 22:45 27.76040 -82.77136 1002 ft 108 kts 358°
2026-04-21 22:45 27.76756 -82.77313 1120 ft 99 kts 358°
2026-04-21 22:46 27.77435 -82.77523 1182 ft 107 kts 357°
2026-04-21 22:46 27.78156 -82.77749 1196 ft 109 kts 358°
2026-04-21 22:46 27.78896 -82.77952 1194 ft 109 kts 358°
2026-04-21 22:46 27.79635 -82.78103 1197 ft 106 kts
2026-04-21 22:47 27.80374 -82.78210 1186 ft 108 kts
2026-04-21 22:47 27.81122 -82.78298 1182 ft 108 kts
2026-04-21 22:47 27.81859 -82.78354 1186 ft 105 kts
2026-04-21 22:47 27.82570 -82.78419 1189 ft 101 kts
2026-04-21 22:48 27.83270 -82.78518 1190 ft 102 kts
2026-04-21 22:48 27.83977 -82.78599 1195 ft 103 kts
2026-04-21 22:48 27.84699 -82.78673 1199 ft 104 kts
2026-04-21 22:48 27.85419 -82.78735 1202 ft 106 kts
2026-04-21 22:49 27.86146 -82.78829 1201 ft 103 kts
2026-04-21 22:49 27.86879 -82.78892 1195 ft 107 kts
2026-04-21 22:49 27.87609 -82.78925 1193 ft 103 kts
2026-04-21 22:49 27.88329 -82.78931 1190 ft 100 kts
2026-04-21 22:50 27.89004 -82.78947 1188 ft 95 kts
2026-04-21 22:50 27.89652 -82.78922 1201 ft 94 kts 12°
2026-04-21 22:50 27.90324 -82.78879 1206 ft 99 kts 13°
2026-04-21 22:50 27.91015 -82.78827 1205 ft 100 kts 13°
2026-04-21 22:51 27.91691 -82.78751 1204 ft 94 kts 12°
2026-04-21 22:51 27.92342 -82.78659 1208 ft 94 kts 17°
2026-04-21 22:51 27.92990 -82.78542 1206 ft 96 kts 19°
2026-04-21 22:51 27.93649 -82.78424 1203 ft 95 kts 19°
2026-04-21 22:52 27.94303 -82.78300 1205 ft 94 kts 18°
2026-04-21 22:52 27.94952 -82.78173 1208 ft 98 kts 19°
2026-04-21 22:52 27.95637 -82.78051 1205 ft 99 kts 19°
2026-04-21 22:52 27.96302 -82.77954 1202 ft 91 kts 19°
2026-04-21 22:53 27.96909 -82.77886 1202 ft 87 kts 18°
2026-04-21 22:53 27.97529 -82.77802 1211 ft 94 kts 19°
2026-04-21 22:53 27.98186 -82.77681 1225 ft 97 kts 19°
2026-04-21 22:53 27.98858 -82.77542 1229 ft 97 kts 23°
2026-04-21 22:54 27.99527 -82.77380 1220 ft 101 kts 24°
2026-04-21 22:54 28.00207 -82.77202 1215 ft 103 kts 25°
2026-04-21 22:54 28.00890 -82.76956 1210 ft 101 kts 31°
2026-04-21 22:54 28.01538 -82.76680 1203 ft 99 kts 31°
2026-04-21 22:55 28.02169 -82.76416 1201 ft 97 kts 30°
2026-04-21 22:55 28.02804 -82.76150 1198 ft 96 kts 31°
2026-04-21 22:55 28.03402 -82.75868 1195 ft 91 kts 31°
2026-04-21 22:55 28.03981 -82.75590 1197 ft 90 kts 31°
2026-04-21 22:56 28.05181 -82.75076 1202 ft 96 kts 31°
2026-04-21 22:56 28.05786 -82.74802 1200 ft 90 kts 31°
2026-04-21 22:56 28.06355 -82.74526 1201 ft 88 kts 31°
2026-04-21 22:57 28.06912 -82.74243 1205 ft 91 kts 37°
2026-04-21 22:57 28.07172 -82.74062 1207 ft 92 kts 41°
2026-04-21 22:57 28.07241 -82.74011 1206 ft 91 kts 41°
2026-04-21 22:57 28.07755 -82.73627 1204 ft 87 kts 41°
2026-04-21 22:58 28.08263 -82.73240 1205 ft 89 kts 41°
2026-04-21 22:58 28.08782 -82.72836 1209 ft 93 kts 41°
2026-04-21 22:58 28.09316 -82.72424 1209 ft 92 kts 41°
2026-04-21 22:58 28.09807 -82.71980 1205 ft 89 kts 48°
2026-04-21 22:59 28.10253 -82.71516 1199 ft 87 kts 49°
2026-04-21 22:59 28.10691 -82.71054 1196 ft 87 kts 49°
2026-04-21 22:59 28.11140 -82.70591 1197 ft 87 kts 49°
2026-04-21 22:59 28.11585 -82.70131 1199 ft 86 kts 49°
2026-04-21 23:00 28.12048 -82.69696 1199 ft 87 kts 49°
2026-04-21 23:00 28.12480 -82.69226 1205 ft 86 kts 58°
2026-04-21 23:00 28.12849 -82.68705 1203 ft 85 kts 57°
2026-04-21 23:00 28.13214 -82.68169 1203 ft 86 kts 58°
2026-04-21 23:01 28.13595 -82.67655 1203 ft 85 kts 58°
2026-04-21 23:01 28.13977 -82.67154 1200 ft 82 kts 58°
2026-04-21 23:01 28.14326 -82.66669 1199 ft 78 kts 58°
2026-04-21 23:01 28.14681 -82.66185 1200 ft 80 kts 58°
2026-04-21 23:02 28.15044 -82.65691 1201 ft 85 kts 58°
2026-04-21 23:02 28.15429 -82.65174 1200 ft 85 kts 58°
2026-04-21 23:02 28.15807 -82.64672 1197 ft 83 kts 58°
2026-04-21 23:02 28.16178 -82.64183 1203 ft 79 kts 57°
2026-04-21 23:03 28.16501 -82.63677 1212 ft 82 kts 65°
2026-04-21 23:03 28.16786 -82.63109 1220 ft 82 kts 66°
2026-04-21 23:03 28.17076 -82.62538 1215 ft 88 kts 66°
2026-04-21 23:03 28.17403 -82.61919 1215 ft 91 kts 66°
2026-04-21 23:04 28.17743 -82.61290 1210 ft 95 kts 66°
2026-04-21 23:04 28.18067 -82.60646 1206 ft 91 kts 66°
2026-04-21 23:04 28.18378 -82.60022 1200 ft 92 kts 66°
2026-04-21 23:04 28.18690 -82.59386 1200 ft 92 kts 66°
2026-04-21 23:05 28.19000 -82.58743 1201 ft 95 kts 66°
2026-04-21 23:05 28.19315 -82.58115 1199 ft 89 kts 66°
2026-04-21 23:05 28.19628 -82.57516 1196 ft 88 kts 66°
2026-04-21 23:05 28.19920 -82.56920 1193 ft 88 kts 67°
2026-04-21 23:06 28.20198 -82.56286 1198 ft 90 kts 66°
2026-04-21 23:06 28.20476 -82.55660 1202 ft 90 kts 66°
2026-04-21 23:06 28.20777 -82.55039 1204 ft 87 kts 65°
2026-04-21 23:06 28.21075 -82.54441 1200 ft 88 kts 66°
2026-04-21 23:07 28.21350 -82.53837 1201 ft 85 kts 66°
2026-04-21 23:07 28.21625 -82.53222 1209 ft 87 kts 65°
2026-04-21 23:07 28.21891 -82.52624 1201 ft 84 kts 66°
2026-04-21 23:07 28.22159 -82.52027 1198 ft 84 kts 65°
2026-04-21 23:08 28.22425 -82.51471 1199 ft 79 kts 66°
2026-04-21 23:08 28.22693 -82.50905 1206 ft 83 kts 66°
2026-04-21 23:08 28.22959 -82.50325 1211 ft 84 kts 66°
2026-04-21 23:08 28.23232 -82.49724 1213 ft 86 kts 66°
2026-04-21 23:09 28.23521 -82.49123 1207 ft 88 kts 65°
2026-04-21 23:09 28.23809 -82.48513 1208 ft 88 kts 66°
2026-04-21 23:09 28.24090 -82.47895 1209 ft 88 kts 65°
2026-04-21 23:09 28.24365 -82.47288 1211 ft 85 kts 65°
2026-04-21 23:10 28.24646 -82.46707 1214 ft 85 kts 66°
2026-04-21 23:10 28.24845 -82.46077 1219 ft 87 kts 80°
2026-04-21 23:10 28.24952 -82.45374 1218 ft 91 kts 82°
2026-04-21 23:10 28.25050 -82.44669 1220 ft 92 kts 82°
2026-04-21 23:11 28.25162 -82.43953 1219 ft 92 kts 81°
2026-04-21 23:11 28.25274 -82.43266 1212 ft 86 kts 82°
2026-04-21 23:11 28.25378 -82.42589 1205 ft 90 kts 81°
2026-04-21 23:11 28.25482 -82.41887 1206 ft 89 kts 81°
2026-04-21 23:12 28.25590 -82.41189 1207 ft 90 kts 82°
2026-04-21 23:12 28.25701 -82.40505 1207 ft 84 kts 81°
2026-04-21 23:12 28.25811 -82.39884 1218 ft 78 kts 82°
2026-04-21 23:12 28.25910 -82.39310 1215 ft 71 kts 81°
2026-04-21 23:13 28.26000 -82.38755 1223 ft 74 kts 81°
2026-04-21 23:13 28.26095 -82.38132 1252 ft 86 kts 81°
2026-04-21 23:13 28.26192 -82.37418 1273 ft 99 kts 82°
2026-04-21 23:13 28.26297 -82.36629 1258 ft 101 kts 82°
2026-04-21 23:14 28.26407 -82.35860 1246 ft 96 kts 82°
2026-04-21 23:14 28.26518 -82.35183 1205 ft 82 kts 82°
2026-04-21 23:14 28.26624 -82.34562 1212 ft 78 kts 82°
2026-04-21 23:14 28.26720 -82.33968 1228 ft 77 kts 82°
2026-04-21 23:15 28.26809 -82.33351 1255 ft 83 kts 81°
2026-04-21 23:15 28.26903 -82.32684 1262 ft 88 kts 81°
2026-04-21 23:15 28.26995 -82.31983 1254 ft 92 kts 82°
2026-04-21 23:15 28.27103 -82.31249 1247 ft 96 kts 82°
2026-04-21 23:16 28.27224 -82.30491 1240 ft 97 kts 82°
2026-04-21 23:16 28.27333 -82.29808 1210 ft 84 kts 81°
2026-04-21 23:16 28.27424 -82.29178 1210 ft 81 kts 82°
2026-04-21 23:16 28.27515 -82.28531 1234 ft 85 kts 81°
2026-04-21 23:17 28.27586 -82.27862 1246 ft 87 kts 91°
2026-04-21 23:17 28.27504 -82.27161 1258 ft 91 kts 97°
2026-04-21 23:17 28.27391 -82.26454 1252 ft 90 kts 96°
2026-04-21 23:17 28.27285 -82.25758 1248 ft 89 kts 97°
2026-04-21 23:18 28.27171 -82.25065 1245 ft 89 kts 96°
2026-04-21 23:18 28.27072 -82.24377 1244 ft 88 kts 96°
2026-04-21 23:18 28.26987 -82.23678 1244 ft 89 kts 97°
2026-04-21 23:18 28.26885 -82.22993 1243 ft 88 kts 103°
2026-04-21 23:19 28.26720 -82.22312 1242 ft 90 kts 103°
2026-04-21 23:19 28.26538 -82.21633 1243 ft 91 kts 105°
2026-04-21 23:19 28.26343 -82.20950 1243 ft 90 kts 106°
2026-04-21 23:19 28.26148 -82.20284 1243 ft 90 kts 105°
2026-04-21 23:20 28.25960 -82.19601 1244 ft 91 kts 103°
2026-04-21 23:20 28.25759 -82.18923 1242 ft 90 kts 103°
2026-04-21 23:20 28.25438 -82.17724 1235 ft 86 kts 98°
2026-04-21 23:21 28.25313 -82.17093 1221 ft 79 kts 96°
2026-04-21 23:21 28.25216 -82.16498 1222 ft 76 kts 95°
2026-04-21 23:21 28.25138 -82.15905 1232 ft 78 kts 94°
2026-04-21 23:21 28.25037 -82.15283 1253 ft 84 kts 96°
2026-04-21 23:22 28.24905 -82.14616 1272 ft 89 kts 99°
2026-04-21 23:22 28.24731 -82.13926 1267 ft 94 kts 102°
2026-04-21 23:22 28.24549 -82.13215 1251 ft 93 kts 103°
2026-04-21 23:22 28.24349 -82.12503 1246 ft 96 kts 108°
2026-04-21 23:23 28.24112 -82.11813 1242 ft 94 kts 106°
2026-04-21 23:23 28.23895 -82.11124 1237 ft 91 kts 104°
2026-04-21 23:23 28.23693 -82.10449 1237 ft 90 kts 101°
2026-04-21 23:23 28.23539 -82.09773 1230 ft 86 kts 99°
2026-04-21 23:24 28.23422 -82.09135 1220 ft 79 kts 97°
2026-04-21 23:24 28.23346 -82.08544 1222 ft 73 kts 97°
2026-04-21 23:24 28.23264 -82.07967 1252 ft 79 kts 97°
2026-04-21 23:24 28.23153 -82.07314 1275 ft 89 kts 99°
2026-04-21 23:25 28.22973 -82.06636 1257 ft 89 kts 103°
2026-04-21 23:25 28.22757 -82.05993 1240 ft 86 kts 105°
2026-04-21 23:25 28.22548 -82.05384 1227 ft 82 kts 103°
2026-04-21 23:25 28.22375 -82.04782 1225 ft 79 kts 100°
2026-04-21 23:26 28.22230 -82.04192 1230 ft 76 kts 99°
2026-04-21 23:26 28.22109 -82.03603 1235 ft 78 kts 97°
2026-04-21 23:26 28.22014 -82.02981 1243 ft 83 kts 95°
2026-04-21 23:26 28.21919 -82.02329 1250 ft 84 kts 97°
2026-04-21 23:27 28.21807 -82.01684 1259 ft 84 kts 101°
2026-04-21 23:27 28.21655 -82.01032 1253 ft 86 kts 104°
2026-04-21 23:27 28.21448 -82.00381 1248 ft 90 kts 108°
2026-04-21 23:27 28.21213 -81.99721 1242 ft 91 kts 105°
2026-04-21 23:28 28.21004 -81.99053 1235 ft 89 kts 102°
2026-04-21 23:28 28.20828 -81.98391 1237 ft 87 kts 99°
2026-04-21 23:28 28.20681 -81.97710 1239 ft 90 kts 98°
2026-04-21 23:28 28.20553 -81.97021 1241 ft 92 kts 97°
2026-04-21 23:29 28.20429 -81.96287 5203 ft 96 kts 97°
2026-04-21 23:29 28.20299 -81.95549 5050 ft 96 kts 99°